AEROCUBE 8C (41853 NORAD) Tracking and Keplerian Element Data

This shows tracking and keplerian element data for the satellite.

Feedback or suggestion? Click here.




ElementValue
Catalog41853
NameAEROCUBE 8C
Epoch Orbit45040
Epoch Day35.08654858
Epoch Year2025
RAAN222.2602
Inclination98.0953
Eccentricity0.0006725
Argument of Perigee341.9191
Mean Anonmoly18.1799
Mean Motion15.14569794
Decay Rate0.0001203
L11 41853U 16067F 25035.08654858 .00012030 00000+0 65521-3 0 9997
L22 41853 98.0953 222.2602 0006725 341.9191 18.1799 15.14569794450400



Live tracking and technical data element details for AEROCUBE 8C (NORAD 41853). AEROCUBE 8C can be tracked NOW for your location showing map with azimuth and elevation plus other details from your city location.







IsCatalogInMostPopularTable: catalog: 41853, numindb: 569
Update: records affected: 1



GetName: 41853 AEROCUBE 8C

Hit Count: updated at: Thu, 22 May 2025 03:11:52 GMT